This is the latest recevied weather packets stored in our database for station/object EA5LU-10. If no packets are shown the sender has not sent any weather packets the latest 10 day(s).
| Time | Temp. | Humidity | Pressure | Rain* | Wind** | Luminosity | Snow |
|---|---|---|---|---|---|---|---|
| 1777653320 | 30° C | 47% | 1011 hPa | - | - | - | - |
| 1777652420 | 30° C | 46% | 1010.8 hPa | - | - | - | - |
| 1777651519 | 30.56° C | 46% | 1010.8 hPa | - | - | - | - |
| 1777650618 | 29.44° C | 47% | 1010.6 hPa | - | - | - | - |
| 1777649717 | 30.56° C | 45% | 1010.7 hPa | - | - | - | - |
| 1777648816 | 30.56° C | 45% | 1010.7 hPa | - | - | - | - |
| 1777647915 | 29.44° C | 47% | 1010.8 hPa | - | - | - | - |
| 1777647014 | 28.33° C | 49% | 1011 hPa | - | - | - | - |
| 1777646114 | 30.56° C | 45% | 1010.9 hPa | - | - | - | - |
| 1777645213 | 29.44° C | 48% | 1011.1 hPa | - | - | - | - |
| 1777644312 | 30.56° C | 47% | 1011.1 hPa | - | - | - | - |
| 1777643411 | 28.89° C | 49% | 1011.3 hPa | - | - | - | - |
| 1777642510 | 29.44° C | 50% | 1011.4 hPa | - | - | - | - |
| 1777641609 | 27.78° C | 53% | 1011.3 hPa | - | - | - | - |
| 1777640708 | 26.67° C | 55% | 1011.4 hPa | - | - | - | - |
| 1777639808 | 27.78° C | 54% | 1011.4 hPa | - | - | - | - |
| 1777638907 | 27.22° C | 56% | 1011.7 hPa | - | - | - | - |
| 1777638006 | 26.67° C | 56% | 1011.7 hPa | - | - | - | - |
| 1777637105 | 23.89° C | 65% | 1011.9 hPa | - | - | - | - |
| 1777636204 | 23.89° C | 65% | 1011.9 hPa | - | - | - | - |
| 1777635304 | 22.78° C | 69% | 1011.8 hPa | - | - | - | - |
| 1777634403 | 23.89° C | 67% | 1012 hPa | - | - | - | - |
| 1777633502 | 22.78° C | 72% | 1012 hPa | - | - | - | - |
| 1777632601 | 21.67° C | 76% | 1012 hPa | - | - | - | - |
| 1777631700 | 21.11° C | 75% | 1012.2 hPa | - | - | - | - |
* Rain since midnight (hover to see other rain measurements)
** Current wind speed in m/s (hover to see current wind gust speed)